SCP
0 0 0 0 0 0 0 0 0 0 0 0 0 0 0 0 0 0 0 0 0 0 0 0 0 0 0 0 0 0 0 0 0 0 0 0 0 0 0 0 0 0 0
0 0 0 0 0 0 0 0 0 0 0 0 0 0 0 0 0 0 0 0 0 0 0 0 0 0 0 0 0 0 0 0 0 0 0 0 0 0 0 0 0 0 0
0 0 0 0 0 0 0 0 0 0 0 0 0 0 0 0 0 0 0 0 0 0 0 0 0 0 0 0 0 0 0 0 0 0 0 0 0 0 0 0 0 0 0
0 0 0 0 0 0 0 0 0 0 0 0 0 0 0 0 0 0 0 0 0 0 0 0 0 0 0 0 0 0 0 0 0 0 0 0 0 0 0 0 0 0 0
0 0 0 0 0 0 0 0 0 0 0 0 0 0 0 0 0 0 0 0 0 0 0 0 0 0 0 0 0 0 0 0 0 0 0 0 0 0 0 0 0 0 0
0 0 0 0 0 0 0 0 0 0 0 0 0 0 0 0 0 0 0 0 0 0 0 0 0 0 0 0 0 0 0 0 0 0 0 0 0 0 0 0 0 0 0
0 0 0 0 0 0 0 0 0 0 0 0 0 0 0 0 0 0 0 0 0 0 0 0 0 0 0 0 0 0 0 0 0 0 0 0 0 0 0 0 0 0 0
0 0 0 0 0 0 0 0 0 0 0 0 0 0 0 0 0 0 0 0 0 0 0 0 0 0 0 0 0 0 0 0 0 0 0 0 0 0 0 0 0 0 0
0 0 0 0 0 0 0 0 0 0 0 0 0 0 0 0 0 0 0 0 0 0 0 0 0 0 0 0 0 0 0 0 0 0 0 0 0 0 0 0 0 0 0
0 0 0 0 0 0 0 0 0 0 0 0 0 0 0 0 0 0 0 0 0 0 0 0 0 0 0 0 0 0 0 0 0 0 0 0 0 0 0 0 0 0 0
0 0 0 0 0 0 0 0 0 0 0 0 0 0 0 0 0 0 0 0 0 0 0 0 0 0 0 0 0 0 0 0 0 0 0 0 0 0 0 0 0 0 0
0 0 0 0 0 0 0 0 0 0 0 0 0 0 0 0 0 0 0 0 0 0 0 0 0 0 0 0 0 0 0 0 0 0 0 0 0 0 0 0 0 0 0
0 0 0 0 0 0 0 0 0 0 0 0 0 0 0 0 0 0 0 0 0 0 0 0 0 0 0 0 0 0 0 0 0 0 0 0 0 0 0 0 0 0 0
0 0 0 0 0 0 0 0 0 0 0 0 0 0 0 0 0 0 0 0 0 0 0 0 0 0 0 0 0 0 0 0 0 0 0 0 0 0 0 0 0 0 0
0 0 0 0 0 0 0 0 0 0 0 0 0 0 0 0 0 0 0 0 0 0 0 0 0 0 0 0 0 0 0 0 0 0 0 0 0 0 0 0 0 0 0
0 0 0 0 0 0 0 0 0 0 0 0 0 0 0 0 0 0 0 0 0 0 0 0 0 0 0 0 0 0 0 0 0 0 0 0 0 0 0 0 0 0 0
0 0 0 0 0 0 0 0 0 0 0 0 0 0 0 0 0 0 0 0 0 0 0 0 0 0 0 0 0 0 0 0 0 0 0 0 0 0 0 0 0 0 0
0 0 0 0 0 0 0 0 0 0 0 0 0 0 0 0 0 0 0 0 0 0 0 0 0 0 0 0 0 0 0 0 0 0 0 0 0 0 0 0 0 0 0
0 0 0 0 0 0 0 0 0 0 0 0 0 0 0 0 0 0 0 0 0 0 0 0 0 0 0 0 0 0 0 0 0 0 0 0 0 0 0 0 0 0 0
0 0 0 0 0 0 0 0 0 0 0 0 0 0 0 0 0 0 0 0 0 0 0 0 0 0 0 0 0 0 0 0 0 0 0 0 0 0 0 0 0 0 0
0 0 0 0 0 0 0 0 0 0 0 0 0 0 0 0 0 0 0 0 0 0 0 0 0 0 0 0 0 0 0 0 0 0 0 0 0 0 0 0 0 0 0
0 0 0 0 0 0 0 0 0 0 0 0 0 0 0 0 0 0 0 0 0 0 0 0 0 0 0 0 0 0 0 0 -0 0 0 0 0 0 0 0 0 0 0
0 0 0 0 0 0 0 0 0 0 0 0 0 0 0 0 0 0 0 0 0 0 0 0 0 0 0 0 0 0 0 0 0 0 0 0 0 0 0 0 0 0 0
0 0 0 0 0 0 0 0 0 0 0 0 0 0 0 0 0 0 0 0 0 0 0 0 0 0 0 0 0 0 0 0 0 0 0 0 0 0 0 0 0 0 0
0 0 0 0 0 0 0 0 0 0 0 0 0 0 0 0 0 0 0 0 0 0 0 0 0 0 0 0 0 0 0 0 0 0 0 0 0 0 0 0 0 0 0
0 0 0 0 0 0 0 0 0 0 0 0 0 0 0 0 0 0 0 0 0 0 0 0 0 0 0 0 0 0 0 0 0 0 0 0 0 0 0 0 0 0 0
Wind_Speed_500mb
11 14 14 18 19 18 15 11 10 8 12 16 16 22 23 24 24 24 25 25 26 27 29 31 32 32 33 32 27 26 24 22 21 21 22 23 25 25 26 25 23 24 29
7 8 8 12 10 8 10 10 10 9 14 18 24 25 26 26 28 31 33 34 34 33 34 34 35 35 35 34 35 32 27 25 24 23 22 23 25 26 26 29 29 26 30
2 2 1 7 11 15 15 15 17 18 20 23 25 28 29 31 34 35 36 37 37 37 37 36 36 37 35 34 34 35 36 33 28 27 24 23 25 25 25 33 31 29 30
8 4 3 9 9 17 15 17 18 21 24 29 33 34 36 37 37 38 38 37 35 34 34 33 34 35 36 35 35 36 37 37 35 31 30 28 29 30 26 29 36 36 34
11 2 9 14 20 20 23 26 29 32 34 36 37 37 37 37 37 38 37 36 35 34 34 36 39 39 39 38 37 35 35 38 39 37 36 34 33 33 36 36 47 45 42
9 10 15 21 22 26 30 33 34 34 34 34 34 34 33 33 33 34 34 34 34 35 35 34 35 37 38 38 39 40 40 39 40 38 37 37 38 40 40 41 45 46 44
17 20 19 21 26 33 35 34 31 29 28 28 29 29 30 30 30 33 32 33 34 36 37 37 38 38 40 40 41 41 41 42 41 41 42 41 41 41 42 42 44 45 44
23 25 24 27 32 34 34 30 31 29 29 30 32 30 30 31 32 34 34 34 33 34 35 35 36 36 37 37 40 41 42 42 44 44 43 42 42 43 41 43 44 40 44
26 27 28 31 31 33 31 33 34 34 32 35 32 30 31 32 34 37 36 34 34 33 32 31 29 33 36 38 41 41 42 42 44 44 44 44 43 43 40 39 39 44 44
31 26 25 29 29 27 30 32 35 35 34 37 36 34 33 32 32 33 30 31 33 35 36 37 38 41 43 44 45 47 49 48 49 49 46 44 46 48 47 46 45 45 46
30 25 28 34 27 24 25 28 32 36 36 36 34 29 26 25 25 26 28 31 33 36 38 41 44 46 48 49 50 52 54 54 55 56 56 54 51 50 49 48 47 48 49
34 31 35 32 26 24 26 28 29 32 33 32 30 28 27 27 29 31 33 37 40 43 46 49 51 54 56 58 59 59 59 58 59 60 61 58 58 56 54 51 51 51 52
38 37 34 33 28 27 28 29 30 30 31 31 30 29 31 34 36 39 42 46 50 53 55 57 58 60 61 62 64 64 65 65 66 65 64 63 62 60 55 56 57 56 55
37 40 37 30 29 30 29 31 30 30 30 31 34 36 38 40 43 47 51 53 57 60 62 64 68 70 70 70 71 72 71 71 71 72 73 71 69 67 64 60 59 61 61
40 38 35 30 30 31 30 30 32 32 32 36 36 39 43 46 49 52 54 57 58 62 66 69 71 74 75 76 77 77 77 78 78 78 78 74 72 70 68 63 60 61 64
38 34 33 33 32 31 31 32 33 34 34 34 36 40 44 49 54 57 59 59 64 69 72 75 77 79 79 79 81 79 80 80 81 78 77 74 72 68 66 62 57 61 64
37 37 33 35 32 31 32 33 33 33 36 39 40 43 48 51 57 59 60 63 71 74 76 76 77 76 77 78 78 78 79 77 75 76 78 77 76 75 71 68 65 63 64
35 36 36 35 35 32 33 35 33 36 37 40 42 45 46 51 53 56 61 71 75 78 77 79 76 77 78 81 82 80 78 75 77 78 77 74 70 69 68 64 60 57 52
32 32 35 36 38 34 38 38 39 40 40 41 44 47 51 50 52 58 67 72 75 75 78 72 72 73 84 81 82 79 77 81 79 76 74 66 60 44 38 42 38 38 40
29 30 33 37 37 37 42 45 44 44 42 46 49 50 50 52 58 63 72 73 73 72 69 69 74 79 71 76 80 80 74 66 76 63 48 45 53 47 47 53 54 54 47
30 33 34 35 35 39 46 52 53 52 54 55 57 56 60 65 70 72 73 74 70 71 72 73 70 70 67 65 72 71 64 78 37 46 62 45 50 59 71 71 56 62 60
29 33 33 33 36 43 49 52 52 55 59 61 63 65 68 71 71 70 69 70 71 73 73 68 66 68 65 55 60 66 75 68 58 22 48 70 86 72 64 63 70 66 52
30 31 32 32 37 44 50 50 52 59 64 67 69 71 70 70 70 71 70 70 67 64 62 66 71 68 70 70 59 58 67 63 68 71 63 62 58 67 64 61 61 65 60
27 26 26 28 38 46 46 50 58 62 64 67 69 70 71 70 70 68 64 63 57 60 66 72 65 68 76 76 66 59 61 69 73 79 65 65 59 53 66 63 62 58 60
15 18 26 35 40 42 46 53 56 58 61 65 68 71 73 73 70 64 58 63 67 70 74 75 66 57 59 63 65 67 72 74 75 70 78 62 62 55 43 65 78 67 67
17 25 29 34 36 43 48 50 56 59 62 66 68 71 73 71 69 69 69 70 71 68 62 69 74 70 67 71 70 67 59 55 59 62 69 81 50 59 56 53 68 71 71
Wind_Direction_500mb
111 83 50 36 39 46 60 50 41 1 348 337 336 327 326 327 332 336 334 333 331 329 325 324 322 321 321 321 320 318 318 313 307 301 294 286 280 275 271 267 269 264 260
100 64 28 10 359 346 334 327 318 311 305 312 319 319 324 329 327 325 326 326 323 319 315 313 311 310 311 311 309 309 306 305 307 304 298 286 277 275 273 270 273 271 264
146 222 344 9 346 348 341 339 337 332 325 320 317 316 317 317 317 317 316 316 315 316 316 314 311 309 308 307 306 306 307 306 302 298 296 286 273 273 271 277 278 279 270
196 205 327 325 345 338 333 325 319 316 314 314 313 312 311 311 310 311 311 311 311 311 310 310 310 309 308 307 303 301 299 298 298 296 292 287 278 272 265 290 278 281 278
179 215 318 307 312 314 316 319 317 312 307 304 302 302 304 305 306 307 307 309 309 310 310 310 311 310 308 306 304 300 297 295 294 295 293 287 278 271 264 265 282 278 277
244 277 292 297 308 312 312 312 312 311 308 306 305 304 304 303 304 302 303 305 306 307 306 306 305 304 304 304 303 302 298 294 292 290 287 285 283 278 272 268 271 276 277
260 282 292 308 310 311 312 312 313 312 311 307 303 304 303 303 303 303 303 304 307 306 306 307 305 304 302 303 300 298 296 295 292 288 286 283 280 277 275 273 272 276 275
268 287 302 305 307 308 309 312 313 314 316 307 308 310 305 303 299 301 305 308 310 313 316 317 315 323 320 319 312 304 298 297 294 292 289 284 281 278 277 276 274 275 271
273 284 295 306 307 304 307 314 313 313 312 312 311 308 305 304 304 305 308 306 307 310 311 312 313 307 312 311 311 307 302 301 298 295 290 286 282 278 277 290 284 276 275
259 277 294 306 305 302 306 308 306 306 309 310 310 309 307 306 306 305 312 314 318 319 317 316 312 313 311 310 309 308 306 303 301 299 294 289 282 278 277 283 282 277 277
260 275 296 307 302 299 298 298 301 306 311 311 311 311 310 312 314 315 316 315 314 313 313 312 310 308 307 305 304 303 301 301 297 296 294 292 288 284 281 281 281 275 275
263 276 290 299 303 306 304 303 304 304 308 309 309 312 314 315 316 316 316 314 314 313 312 311 310 308 306 304 302 300 299 298 295 294 292 290 286 284 284 284 279 274 274
258 275 290 294 300 304 305 306 308 306 304 304 307 310 311 313 312 311 311 313 314 314 312 310 307 307 306 305 303 302 300 298 296 293 288 286 284 284 286 282 279 275 271
262 278 288 297 305 307 311 311 309 308 305 308 307 309 310 309 310 310 313 315 315 315 314 313 312 310 308 307 306 303 301 298 296 293 291 288 283 278 278 281 276 274 273
270 279 289 298 304 306 308 308 307 307 307 308 310 310 311 312 312 314 316 315 314 314 314 313 312 310 308 306 304 303 302 300 297 295 293 290 287 281 276 276 278 274 271
274 279 287 293 297 302 304 306 307 307 306 303 306 309 312 315 317 318 318 316 316 316 316 315 315 313 310 307 305 302 300 298 298 297 294 293 290 286 280 276 279 276 272
280 286 286 287 292 295 300 304 306 302 300 304 310 314 317 317 316 316 316 314 316 316 314 312 311 309 308 308 305 304 302 300 298 297 298 296 295 292 286 280 277 277 275
289 290 283 285 289 298 303 304 304 305 304 306 310 315 315 314 314 313 313 314 315 315 315 316 316 315 314 314 312 310 308 305 301 299 298 301 299 293 290 287 283 279 278
289 287 283 286 292 302 306 309 308 305 306 311 310 311 314 314 313 309 309 311 313 314 316 318 316 315 315 314 314 312 309 309 308 305 303 300 294 296 289 284 278 282 276
295 294 289 286 293 303 310 310 306 303 311 313 316 318 320 317 314 314 314 316 319 318 319 317 314 313 313 312 311 309 310 308 306 304 298 292 294 286 289 281 284 285 281
293 297 291 290 296 308 312 313 312 320 321 323 323 324 323 321 321 321 321 321 321 318 316 317 316 315 311 310 308 305 302 310 308 299 284 279 278 288 295 298 291 289 293
284 292 297 300 308 314 315 318 321 323 322 322 322 322 323 322 321 321 320 319 319 317 316 319 320 317 314 313 307 305 306 301 303 262 286 290 299 299 302 294 293 294 290
280 293 301 309 310 310 317 318 316 318 320 323 325 325 324 322 321 320 320 319 320 320 319 312 310 313 309 307 303 299 304 297 303 297 294 292 292 299 298 302 300 300 299
284 298 303 300 303 311 315 317 321 323 324 326 325 323 322 323 323 325 325 325 321 313 308 307 307 302 303 302 302 298 293 294 299 302 294 291 292 287 296 295 294 291 291
279 280 285 296 303 307 310 316 320 320 322 320 322 323 325 326 329 331 325 317 316 314 308 308 310 304 300 301 302 302 298 294 293 293 295 287 289 285 281 291 295 292 292
264 275 287 294 302 307 312 316 317 320 323 324 325 327 328 330 331 327 325 324 322 321 313 306 302 300 298 297 297 299 297 300 300 299 298 297 279 289 290 290 299 295 292
Wind_Speed_850mb
11 14 14 18 19 18 15 11 10 8 12 16 16 22 23 24 24 24 25 25 26 27 29 31 32 32 33 32 27 26 24 22 21 21 22 23 25 25 26 25 23 24 29
7 8 8 12 10 8 10 10 10 9 14 18 24 25 26 26 28 31 33 34 34 33 34 34 35 35 35 34 35 32 27 25 24 23 22 23 25 26 26 29 29 26 30
2 2 1 7 11 15 15 15 17 18 20 23 25 28 29 31 34 35 36 37 37 37 37 36 36 37 35 34 34 35 36 33 28 27 24 23 25 25 25 33 31 29 30
8 4 3 9 9 17 15 17 18 21 24 29 33 34 36 37 37 38 38 37 35 34 34 33 34 35 36 35 35 36 37 37 35 31 30 28 29 30 26 29 36 36 34
11 2 9 14 20 20 23 26 29 32 34 36 37 37 37 37 37 38 37 36 35 34 34 36 39 39 39 38 37 35 35 38 39 37 36 34 33 33 36 36 47 45 42
9 10 15 21 22 26 30 33 34 34 34 34 34 34 33 33 33 34 34 34 34 35 35 34 35 37 38 38 39 40 40 39 40 38 37 37 38 40 40 41 45 46 44
17 20 19 21 26 33 35 34 31 29 28 28 29 29 30 30 30 33 32 33 34 36 37 37 38 38 40 40 41 41 41 42 41 41 42 41 41 41 42 42 44 45 44
23 25 24 27 32 34 34 30 31 29 29 30 32 30 30 31 32 34 34 34 33 34 35 35 36 36 37 37 40 41 42 42 44 44 43 42 42 43 41 43 44 40 44
26 27 28 31 31 33 31 33 34 34 32 35 32 30 31 32 34 37 36 34 34 33 32 31 29 33 36 38 41 41 42 42 44 44 44 44 43 43 40 39 39 44 44
31 26 25 29 29 27 30 32 35 35 34 37 36 34 33 32 32 33 30 31 33 35 36 37 38 41 43 44 45 47 49 48 49 49 46 44 46 48 47 46 45 45 46
30 25 28 34 27 24 25 28 32 36 36 36 34 29 26 25 25 26 28 31 33 36 38 41 44 46 48 49 50 52 54 54 55 56 56 54 51 50 49 48 47 48 49
34 31 35 32 26 24 26 28 29 32 33 32 30 28 27 27 29 31 33 37 40 43 46 49 51 54 56 58 59 59 59 58 59 60 61 58 58 56 54 51 51 51 52
38 37 34 33 28 27 28 29 30 30 31 31 30 29 31 34 36 39 42 46 50 53 55 57 58 60 61 62 64 64 65 65 66 65 64 63 62 60 55 56 57 56 55
37 40 37 30 29 30 29 31 30 30 30 31 34 36 38 40 43 47 51 53 57 60 62 64 68 70 70 70 71 72 71 71 71 72 73 71 69 67 64 60 59 61 61
40 38 35 30 30 31 30 30 32 32 32 36 36 39 43 46 49 52 54 57 58 62 66 69 71 74 75 76 77 77 77 78 78 78 78 74 72 70 68 63 60 61 64
38 34 33 33 32 31 31 32 33 34 34 34 36 40 44 49 54 57 59 59 64 69 72 75 77 79 79 79 81 79 80 80 81 78 77 74 72 68 66 62 57 61 64
37 37 33 35 32 31 32 33 33 33 36 39 40 43 48 51 57 59 60 63 71 74 76 76 77 76 77 78 78 78 79 77 75 76 78 77 76 75 71 68 65 63 64
35 36 36 35 35 32 33 35 33 36 37 40 42 45 46 51 53 56 61 71 75 78 77 79 76 77 78 81 82 80 78 75 77 78 77 74 70 69 68 64 60 57 52
32 32 35 36 38 34 38 38 39 40 40 41 44 47 51 50 52 58 67 72 75 75 78 72 72 73 84 81 82 79 77 81 79 76 74 66 60 44 38 42 38 38 40
29 30 33 37 37 37 42 45 44 44 42 46 49 50 50 52 58 63 72 73 73 72 69 69 74 79 71 76 80 80 74 66 76 63 48 45 53 47 47 53 54 54 47
30 33 34 35 35 39 46 52 53 52 54 55 57 56 60 65 70 72 73 74 70 71 72 73 70 70 67 65 72 71 64 78 37 46 62 45 50 59 71 71 56 62 60
29 33 33 33 36 43 49 52 52 55 59 61 63 65 68 71 71 70 69 70 71 73 73 68 66 68 65 55 60 66 75 68 58 22 48 70 86 72 64 63 70 66 52
30 31 32 32 37 44 50 50 52 59 64 67 69 71 70 70 70 71 70 70 67 64 62 66 71 68 70 70 59 58 67 63 68 71 63 62 58 67 64 61 61 65 60
27 26 26 28 38 46 46 50 58 62 64 67 69 70 71 70 70 68 64 63 57 60 66 72 65 68 76 76 66 59 61 69 73 79 65 65 59 53 66 63 62 58 60
15 18 26 35 40 42 46 53 56 58 61 65 68 71 73 73 70 64 58 63 67 70 74 75 66 57 59 63 65 67 72 74 75 70 78 62 62 55 43 65 78 67 67
17 25 29 34 36 43 48 50 56 59 62 66 68 71 73 71 69 69 69 70 71 68 62 69 74 70 67 71 70 67 59 55 59 62 69 81 50 59 56 53 68 71 71
Wind_Direction_850mb
111 83 50 36 39 46 60 50 41 1 348 337 336 327 326 327 332 336 334 333 331 329 325 324 322 321 321 321 320 318 318 313 307 301 294 286 280 275 271 267 269 264 260
100 64 28 10 359 346 334 327 318 311 305 312 319 319 324 329 327 325 326 326 323 319 315 313 311 310 311 311 309 309 306 305 307 304 298 286 277 275 273 270 273 271 264
146 222 344 9 346 348 341 339 337 332 325 320 317 316 317 317 317 317 316 316 315 316 316 314 311 309 308 307 306 306 307 306 302 298 296 286 273 273 271 277 278 279 270
196 205 327 325 345 338 333 325 319 316 314 314 313 312 311 311 310 311 311 311 311 311 310 310 310 309 308 307 303 301 299 298 298 296 292 287 278 272 265 290 278 281 278
179 215 318 307 312 314 316 319 317 312 307 304 302 302 304 305 306 307 307 309 309 310 310 310 311 310 308 306 304 300 297 295 294 295 293 287 278 271 264 265 282 278 277
244 277 292 297 308 312 312 312 312 311 308 306 305 304 304 303 304 302 303 305 306 307 306 306 305 304 304 304 303 302 298 294 292 290 287 285 283 278 272 268 271 276 277
260 282 292 308 310 311 312 312 313 312 311 307 303 304 303 303 303 303 303 304 307 306 306 307 305 304 302 303 300 298 296 295 292 288 286 283 280 277 275 273 272 276 275
268 287 302 305 307 308 309 312 313 314 316 307 308 310 305 303 299 301 305 308 310 313 316 317 315 323 320 319 312 304 298 297 294 292 289 284 281 278 277 276 274 275 271
273 284 295 306 307 304 307 314 313 313 312 312 311 308 305 304 304 305 308 306 307 310 311 312 313 307 312 311 311 307 302 301 298 295 290 286 282 278 277 290 284 276 275
259 277 294 306 305 302 306 308 306 306 309 310 310 309 307 306 306 305 312 314 318 319 317 316 312 313 311 310 309 308 306 303 301 299 294 289 282 278 277 283 282 277 277
260 275 296 307 302 299 298 298 301 306 311 311 311 311 310 312 314 315 316 315 314 313 313 312 310 308 307 305 304 303 301 301 297 296 294 292 288 284 281 281 281 275 275
263 276 290 299 303 306 304 303 304 304 308 309 309 312 314 315 316 316 316 314 314 313 312 311 310 308 306 304 302 300 299 298 295 294 292 290 286 284 284 284 279 274 274
258 275 290 294 300 304 305 306 308 306 304 304 307 310 311 313 312 311 311 313 314 314 312 310 307 307 306 305 303 302 300 298 296 293 288 286 284 284 286 282 279 275 271
262 278 288 297 305 307 311 311 309 308 305 308 307 309 310 309 310 310 313 315 315 315 314 313 312 310 308 307 306 303 301 298 296 293 291 288 283 278 278 281 276 274 273
270 279 289 298 304 306 308 308 307 307 307 308 310 310 311 312 312 314 316 315 314 314 314 313 312 310 308 306 304 303 302 300 297 295 293 290 287 281 276 276 278 274 271
274 279 287 293 297 302 304 306 307 307 306 303 306 309 312 315 317 318 318 316 316 316 316 315 315 313 310 307 305 302 300 298 298 297 294 293 290 286 280 276 279 276 272
280 286 286 287 292 295 300 304 306 302 300 304 310 314 317 317 316 316 316 314 316 316 314 312 311 309 308 308 305 304 302 300 298 297 298 296 295 292 286 280 277 277 275
289 290 283 285 289 298 303 304 304 305 304 306 310 315 315 314 314 313 313 314 315 315 315 316 316 315 314 314 312 310 308 305 301 299 298 301 299 293 290 287 283 279 278
289 287 283 286 292 302 306 309 308 305 306 311 310 311 314 314 313 309 309 311 313 314 316 318 316 315 315 314 314 312 309 309 308 305 303 300 294 296 289 284 278 282 276
295 294 289 286 293 303 310 310 306 303 311 313 316 318 320 317 314 314 314 316 319 318 319 317 314 313 313 312 311 309 310 308 306 304 298 292 294 286 289 281 284 285 281
293 297 291 290 296 308 312 313 312 320 321 323 323 324 323 321 321 321 321 321 321 318 316 317 316 315 311 310 308 305 302 310 308 299 284 279 278 288 295 298 291 289 293
284 292 297 300 308 314 315 318 321 323 322 322 322 322 323 322 321 321 320 319 319 317 316 319 320 317 314 313 307 305 306 301 303 262 286 290 299 299 302 294 293 294 290
280 293 301 309 310 310 317 318 316 318 320 323 325 325 324 322 321 320 320 319 320 320 319 312 310 313 309 307 303 299 304 297 303 297 294 292 292 299 298 302 300 300 299
284 298 303 300 303 311 315 317 321 323 324 326 325 323 322 323 323 325 325 325 321 313 308 307 307 302 303 302 302 298 293 294 299 302 294 291 292 287 296 295 294 291 291
279 280 285 296 303 307 310 316 320 320 322 320 322 323 325 326 329 331 325 317 316 314 308 308 310 304 300 301 302 302 298 294 293 293 295 287 289 285 281 291 295 292 292
264 275 287 294 302 307 312 316 317 320 323 324 325 327 328 330 331 327 325 324 322 321 313 306 302 300 298 297 297 299 297 300 300 299 298 297 279 289 290 290 299 295 292